SCP
0 0 0 0 0 0 0 0 0 0 0 0 0 0 0 0 0 0 0 0 0 0 0 0 0 0 0 0 0 0 0 0 0 0 0 0 0 0 1 1 1 1 1 1
0 0 0 0 0 0 0 0 0 0 0 0 0 0 0 0 0 0 0 0 0 0 0 0 0 0 0 0 0 0 0 0 0 0 0 0 0 0 1 1 1 1 1 1
0 0 0 0 0 0 0 0 0 0 0 0 0 0 0 0 0 0 0 0 0 0 0 0 0 0 0 0 0 0 0 0 0 0 0 0 0 0 1 1 1 1 1 1
0 0 0 0 0 0 0 0 0 0 0 0 0 0 0 0 0 0 0 0 0 0 0 0 0 0 0 0 0 0 0 0 0 0 0 0 0 0 0 1 1 1 1 1
0 0 0 0 0 0 0 0 0 0 0 0 0 0 0 0 0 0 0 0 0 0 0 0 0 0 0 0 0 0 0 0 0 0 0 0 0 0 0 0 1 1 1 1
0 0 0 0 0 0 0 0 0 0 0 0 0 0 0 0 0 0 0 0 0 0 0 0 0 0 0 0 0 0 0 0 0 0 0 0 0 0 0 0 0 0 1 1
0 0 0 0 0 0 0 0 0 0 0 0 0 0 0 0 0 0 0 0 0 0 0 0 0 0 0 0 0 0 0 0 0 0 0 0 0 0 0 0 0 0 1 1
0 0 0 0 0 0 0 0 0 0 0 0 0 0 0 0 0 0 0 0 0 0 0 0 0 0 0 0 0 0 0 0 0 0 0 0 0 0 0 0 0 0 0 0
0 0 0 0 0 0 0 0 0 0 0 0 0 0 0 0 0 0 0 0 0 0 0 0 0 0 0 0 0 0 0 0 0 0 0 0 0 0 0 0 0 0 0 0
0 0 0 0 0 0 0 0 0 0 0 0 0 0 0 0 0 0 0 0 0 0 0 0 0 0 0 0 0 0 0 0 0 0 0 0 0 0 0 0 0 0 0 0
0 0 0 0 0 0 0 0 0 0 0 0 0 0 0 0 0 0 0 0 0 0 0 0 0 0 0 0 0 0 0 0 0 0 0 0 0 0 0 0 0 0 0 0
0 0 0 0 0 0 0 0 0 0 0 0 0 0 0 0 0 0 0 0 0 0 0 0 0 0 0 0 0 0 0 0 0 0 0 0 0 0 0 0 0 0 0 0
0 0 0 0 0 0 0 0 0 0 0 0 0 0 0 0 0 0 0 0 0 0 0 0 0 0 0 0 0 0 0 0 0 0 0 0 0 0 0 0 0 0 0 0
0 0 0 0 0 0 0 0 0 0 0 0 0 0 0 0 0 0 0 0 0 0 0 0 0 0 0 0 0 0 0 0 0 0 0 0 0 0 0 0 0 0 0 0
0 0 0 0 0 0 0 0 0 0 0 0 0 0 0 0 0 0 0 0 0 0 0 0 0 0 0 0 0 0 0 0 0 0 0 0 0 0 0 0 0 0 0 0
0 0 0 0 0 0 0 0 0 0 -0 -0 0 0 0 0 0 0 0 0 0 0 0 0 0 0 0 0 0 0 0 0 0 0 0 0 0 0 0 0 0 0 0 0
0 0 0 0 0 0 0 0 0 0 0 0 0 0 0 0 0 0 0 0 0 0 0 0 0 0 0 0 0 0 0 0 0 0 0 0 0 0 0 0 0 0 0 0
0 0 0 0 0 0 0 0 0 0 0 0 0 0 0 0 0 0 0 0 0 0 0 0 0 0 0 0 0 0 0 0 0 0 0 0 0 0 0 0 0 0 0 0
0 0 0 0 0 0 0 0 0 0 0 0 0 0 0 0 0 0 0 0 0 0 0 0 0 0 0 0 0 0 0 0 0 0 0 0 0 0 0 0 0 0 0 0
0 0 0 0 0 0 0 0 0 0 0 0 0 0 0 0 0 0 0 0 0 0 0 0 0 0 0 0 0 0 0 0 0 0 0 0 0 0 0 0 0 0 0 0
0 0 0 0 0 0 0 0 0 0 0 0 0 0 0 0 0 0 0 0 0 0 0 0 0 0 0 0 0 0 0 0 0 0 0 0 0 0 0 0 0 0 0 0
0 0 0 0 0 0 0 0 0 0 0 0 0 0 0 0 0 0 0 0 0 0 0 0 0 0 0 0 0 0 0 0 0 0 0 0 0 0 0 0 0 0 0 0
0 0 0 0 0 0 0 0 0 0 0 0 0 0 0 0 0 0 0 0 0 0 0 0 0 0 0 0 0 0 0 0 0 0 0 0 0 0 0 0 0 0 0 0
0 0 0 0 0 0 0 0 0 0 0 0 0 0 0 0 0 0 0 0 0 0 0 0 0 0 0 0 0 0 0 0 0 0 0 0 0 0 0 0 0 0 0 0
0 0 0 0 0 0 0 0 0 0 0 0 0 0 0 0 0 0 0 0 0 0 0 0 0 0 0 0 0 0 0 0 0 0 0 0 0 0 0 0 0 0 0 0
0 0 0 0 0 0 0 0 0 0 0 0 0 0 0 0 0 0 0 0 0 0 0 0 0 0 0 0 0 0 0 0 0 0 0 0 0 0 0 0 0 0 0 0
Wind_Speed
4 5 6 6 5 3 2 2 6 7 5 6 10 9 8 8 10 10 10 11 12 13 13 13 13 12 12 12 12 11 11 10 8 6 6 5 5 5 5 5 8 9 9 9
7 9 6 4 3 2 2 3 6 7 4 4 8 8 7 8 10 10 11 12 13 13 14 14 13 13 13 13 13 12 11 10 9 6 6 5 6 5 5 5 6 7 8 8
9 7 3 4 5 3 4 2 3 6 6 5 4 5 5 6 7 9 10 11 12 13 15 14 14 13 13 13 13 11 12 10 9 8 6 5 4 4 4 4 4 5 6 7
10 5 3 5 7 5 3 3 2 8 8 4 4 2 5 5 7 10 12 12 13 13 14 14 14 14 14 13 13 12 12 11 10 8 6 7 5 5 5 4 4 5 5 6
8 6 5 6 6 5 4 1 3 6 4 4 0 4 5 5 9 12 13 13 13 13 14 14 14 14 14 13 12 12 12 11 10 9 8 7 6 6 5 4 4 4 3 4
8 4 6 5 4 3 3 6 6 5 6 3 3 4 4 7 10 12 13 13 13 13 13 13 13 13 13 13 12 12 12 11 11 10 9 8 8 7 6 5 4 3 2 2
7 6 4 2 2 3 3 5 4 6 4 2 2 2 4 6 7 9 11 12 12 12 12 12 13 13 13 14 13 12 12 11 11 10 9 9 9 7 6 6 4 3 2 1
6 6 5 6 5 3 2 5 5 5 2 3 2 1 4 4 5 6 8 9 10 11 11 11 12 12 12 13 13 13 12 12 12 11 10 9 9 6 5 6 5 4 3 2
3 6 5 5 5 4 1 2 4 3 0 2 3 2 3 2 5 7 8 9 10 11 10 11 11 12 12 12 12 12 12 11 12 11 10 9 9 8 7 7 6 4 4 3
2 6 4 2 3 5 5 2 3 4 3 1 2 1 2 5 7 8 9 9 10 10 10 11 11 11 11 10 10 11 11 11 11 11 10 8 9 9 8 7 7 6 5 4
1 4 6 3 3 4 1 1 1 0 3 4 0 3 4 4 5 6 7 8 8 9 9 9 9 10 10 10 10 10 11 11 11 11 11 10 10 10 9 8 8 7 6 6
1 1 5 5 4 2 3 3 3 3 1 2 1 3 3 2 3 4 6 6 7 8 8 8 8 9 10 10 10 10 10 11 10 10 10 10 10 10 10 10 10 9 8 7
3 4 5 7 6 4 2 2 1 1 1 1 1 4 4 1 2 3 4 6 6 7 8 8 8 8 9 9 10 10 10 10 10 10 10 10 11 11 10 10 10 9 9 8
2 1 3 3 5 3 3 3 2 4 2 2 1 2 2 1 1 2 3 5 6 6 7 7 7 7 8 8 9 9 10 9 9 10 10 10 10 10 10 10 10 10 9 9
4 3 4 5 4 2 2 3 5 4 2 2 2 2 2 1 1 2 3 4 5 6 7 8 7 8 8 8 9 9 9 9 9 9 10 10 10 10 10 10 10 10 9 9
2 4 6 5 3 2 4 5 6 5 4 4 4 4 3 2 2 2 1 3 4 6 7 7 7 7 7 8 7 8 8 8 8 9 9 9 9 10 10 10 10 10 10 9
5 5 5 4 3 5 8 9 11 7 7 7 6 4 6 5 3 2 1 2 3 4 5 6 7 7 7 7 7 7 8 8 8 9 9 9 9 10 10 10 10 10 9 10
5 4 2 2 4 5 4 3 7 8 8 9 6 5 6 5 3 2 2 2 2 3 4 5 6 6 6 6 6 6 6 7 8 9 9 9 9 9 9 9 9 9 8 8
2 4 3 3 4 4 3 6 8 9 8 12 11 9 8 5 5 5 4 3 1 2 3 4 5 5 5 5 5 5 6 7 8 8 8 8 8 9 9 9 9 8 8 8
2 4 4 4 5 4 2 7 7 6 7 11 14 13 11 9 6 5 5 4 2 1 2 3 3 4 4 4 4 4 5 6 7 7 7 7 7 8 8 8 8 7 7 7
7 6 7 7 6 5 5 10 10 7 1 10 15 14 14 12 4 6 6 4 3 1 1 2 3 3 3 3 3 3 4 6 5 5 5 6 6 7 7 7 7 7 7 7
7 6 7 6 6 3 11 12 11 5 4 9 13 14 14 11 6 6 6 5 4 2 1 2 2 2 2 2 2 2 3 3 3 3 4 5 6 6 5 6 6 7 7 7
7 6 3 7 4 4 13 10 7 3 6 8 12 13 13 12 10 8 7 6 5 3 2 1 2 1 1 1 2 2 2 2 1 2 3 3 4 5 5 6 6 6 6 6
6 5 6 7 9 8 12 12 8 7 7 7 11 13 14 13 11 10 8 7 6 4 3 2 2 1 1 1 0 1 1 2 1 1 2 2 2 3 4 4 5 5 6 6
5 8 7 9 7 6 10 16 15 11 9 8 10 12 14 13 12 11 9 8 6 5 4 3 2 1 0 0 0 1 1 2 2 1 1 1 2 2 2 3 4 5 5 6
10 11 9 7 6 7 5 9 16 15 14 12 13 13 13 13 12 11 9 8 7 6 5 4 3 2 1 1 1 2 2 3 2 1 1 1 1 1 0 1 2 3 2 4
Wind_Direction
52 73 57 34 20 16 32 128 111 102 111 91 98 92 66 45 37 28 21 14 10 5 1 1 357 354 351 349 347 342 338 335 330 322 315 308 300 290 275 265 262 252 244 238
116 71 44 52 71 96 123 136 117 116 121 123 117 94 72 48 34 24 15 10 5 358 357 358 355 354 349 348 347 342 339 337 331 323 312 297 296 290 288 278 265 255 247 241
88 68 56 77 69 86 70 24 138 142 138 144 170 148 78 57 37 28 19 10 4 359 353 353 352 351 348 348 345 339 336 333 332 327 316 309 296 283 279 277 272 263 249 239
81 69 83 79 51 353 94 41 166 166 185 152 249 224 81 31 26 21 14 8 3 360 355 354 351 351 350 348 345 341 340 337 336 332 329 320 310 303 301 296 281 274 258 241
92 58 52 58 39 1 54 82 174 187 207 182 273 279 86 27 12 8 7 5 3 1 358 357 356 353 353 351 349 346 346 345 346 344 339 328 322 314 309 301 287 282 272 244
96 75 38 42 67 48 132 149 144 184 221 217 23 308 52 23 2 355 359 1 1 0 360 359 358 356 357 357 355 353 350 351 350 347 347 345 338 331 329 325 311 295 284 252
120 90 66 9 194 128 223 233 217 204 209 92 49 315 46 21 4 353 350 355 358 0 1 360 359 359 359 359 358 357 354 354 353 352 355 353 350 341 338 335 322 309 303 288
171 116 58 29 4 360 19 299 309 312 348 109 161 355 59 28 1 353 357 359 358 2 2 1 1 0 357 357 358 359 359 357 358 359 358 358 359 352 351 347 339 332 332 326
164 112 102 56 35 324 256 40 346 315 345 214 133 123 130 35 5 3 3 2 3 4 5 4 2 2 360 359 358 359 0 360 1 3 3 7 4 2 1 357 354 357 360 357
103 125 116 139 182 65 21 20 246 270 278 255 145 124 22 11 4 0 2 1 360 1 4 5 4 3 1 0 358 2 3 3 6 5 6 8 8 9 9 8 11 12 12 12
170 143 135 155 45 31 141 154 40 22 327 307 322 86 50 359 353 348 354 356 356 358 360 2 4 2 2 6 6 7 7 8 9 8 9 12 14 14 16 18 17 17 20 19
34 208 126 103 83 8 13 13 295 298 108 322 326 97 98 341 339 338 342 349 353 355 358 1 5 5 6 9 9 12 10 11 9 8 11 15 16 20 20 21 21 23 27 29
163 209 162 163 170 173 139 78 10 350 175 214 251 105 125 268 329 344 341 347 352 356 1 4 8 7 7 10 11 13 14 12 10 11 15 18 20 21 20 21 23 26 28 31
257 234 318 14 73 130 154 159 198 254 254 189 214 131 164 221 319 346 348 348 356 2 5 8 7 9 11 12 14 13 14 13 12 16 18 20 19 17 18 22 26 28 30 33
248 131 103 87 96 142 167 185 204 238 277 270 164 198 193 185 308 333 333 344 357 8 10 10 10 11 12 16 15 16 15 15 15 21 23 21 20 21 21 25 28 32 31 31
196 148 148 140 144 208 230 214 211 220 221 220 205 212 181 190 236 264 302 344 354 4 7 7 10 10 11 15 13 15 17 18 19 26 25 21 22 24 24 26 30 32 32 32
167 175 201 168 169 246 244 215 206 207 205 204 209 182 169 195 213 249 302 323 346 356 358 1 4 7 10 15 11 16 18 20 25 30 29 23 24 26 25 29 32 30 31 32
170 177 213 196 211 246 85 116 199 213 215 213 214 180 189 197 200 233 259 283 330 358 353 0 358 3 4 10 11 17 25 26 30 30 29 27 24 27 28 29 29 29 32 33
242 199 218 243 255 266 178 184 191 209 228 210 208 196 191 189 212 206 197 225 292 343 344 345 342 344 351 5 5 8 27 33 35 32 28 26 25 27 28 29 26 25 30 33
161 232 238 234 263 257 128 151 173 208 243 196 198 194 186 190 208 158 155 181 200 271 325 331 327 337 355 6 356 7 28 33 36 32 30 30 28 28 29 29 25 27 32 35
188 201 225 238 257 263 129 145 167 212 275 163 187 189 187 197 191 123 151 172 183 208 296 312 323 340 354 351 341 14 37 42 40 36 37 36 33 35 30 30 28 30 36 39
206 199 208 213 233 240 144 163 200 228 102 169 184 187 189 192 173 159 171 176 186 200 228 305 321 348 356 348 334 30 51 58 61 54 50 44 37 33 31 35 33 34 36 41
222 224 222 222 250 69 177 197 208 212 186 183 187 187 188 189 187 187 189 188 187 197 203 264 300 317 31 22 338 27 89 104 108 89 73 57 54 48 35 32 35 36 37 37
201 210 234 249 251 225 211 219 215 212 207 193 190 187 189 192 192 191 193 191 189 192 200 224 262 283 83 72 30 31 112 170 175 124 91 82 61 57 51 32 28 30 28 30
199 185 220 245 252 228 223 219 213 206 205 194 190 190 192 193 193 193 193 192 190 188 191 212 242 269 264 200 188 146 179 205 200 172 148 118 86 55 41 46 28 21 39 25
193 195 202 232 216 210 203 200 202 200 200 196 190 190 194 197 195 194 195 190 191 192 191 202 217 231 224 221 207 170 188 224 231 200 179 171 158 130 43 47 99 98 53 56